Weather History for Boulder City, NV

Change the Weather History Date:

Tuesday, December 3, 2013

  Actual Average (KLAS) Record (KLAS)
Temperature  
Mean Temperature 56 °F 49 °F  
Max Temperature 71 °F 59 °F 77 °F (1980)
Min Temperature 39 °F 40 °F 23 °F (1948)
Degree Days  
Heating Degree Days 9 16  
Month to date heating degree days 46  
Since 1 July heating degree days 355  
Cooling Degree Days 0 0  
Month to date cooling degree days 0  
Year to date cooling degree days 3568  
Growing Degree Days 6 (Base 50)    
Moisture  
Dew Point 34 °F    
Average Humidity 41    
Maximum Humidity 87    
Minimum Humidity 25    
Precipitation  
Precipitation 0.00 in 0.02 in 0.14 in (1954)
Month to date precipitation 0.04  
Year to date precipitation 3.73  
Snow  
Snow 0.00 in 0.00 in 0.00 in (2012)
Month to date snowfall 0.0  
Since 1 July snowfall 0.0  
Snow Depth -    
Sea Level Pressure  
Sea Level Pressure 29.61 in    
Wind  
Wind Speed 10 mph (SSW)    
Max Wind Speed 28 mph    
Max Gust Speed 36 mph    
Visibility 10 miles    
Events      
T = Trace of Precipitation, MM = Missing Value Source: NWS Daily Summary

Daily Weather History Graph

Daily Weather History Graph

Search for Another Location

Airport:

Trip Planner

Search our weather history database for the weather conditions in past years. The results will help you decide how hot, cold, wet, or windy it might be!

Date:

Astronomy

Dec. 03, 2013 Rise Set
Actual Time 6:33 AM PST 4:25 PM PST
Civil Twilight 6:05 AM PST 4:53 PM PST
Nautical Twilight 5:33 AM PST 5:25 PM PST
Astronomical Twilight 5:02 AM PST 5:56 PM PST
Moon 7:07 AM PST (12/3) 5:32 PM PST (12/3)
Length of Visible Light 10h 48m
Length of Day
9h 51m
New Moon, 1% of the Moon is Illuminated
Dec 3
New Moon
Dec 9
First Quarter
Dec 17
Full
Dec 25
Last Quarter
Jan 1
New

Hourly Weather History & Observations

Time (PST) Temp. Windchill Dew Point Humidity Pressure Visibility Wind Dir Wind Speed Gust Speed Precip Events Conditions
12:15 AM 51.8 °F - 33.8 °F 50% 29.78 in 10.0 mi South 9.2 mph - N/A   Clear
12:35 AM 51.8 °F - 33.8 °F 50% 29.77 in 10.0 mi ESE 4.6 mph - N/A   Clear
12:55 AM 51.8 °F - 32.0 °F 47% 29.76 in 10.0 mi East 5.8 mph - N/A   Clear
1:15 AM 51.8 °F - 32.0 °F 47% 29.76 in 10.0 mi NE 4.6 mph - N/A   Clear
1:35 AM 51.8 °F - 32.0 °F 47% 29.75 in 10.0 mi East 3.5 mph - N/A   Clear
1:55 AM 48.2 °F - 33.8 °F 58% 29.75 in 10.0 mi NNE 5.8 mph - N/A   Clear
2:15 AM 46.4 °F - 33.8 °F 62% 29.75 in 10.0 mi Calm Calm - N/A   Clear
2:35 AM 48.2 °F - 33.8 °F 58% 29.74 in 10.0 mi NE 6.9 mph - N/A   Clear
2:55 AM 50.0 °F - 32.0 °F 50% 29.73 in 10.0 mi ENE 6.9 mph - N/A   Clear
3:15 AM 50.0 °F - 32.0 °F 50% 29.72 in 10.0 mi East 6.9 mph - N/A   Clear
3:35 AM 50.0 °F - 32.0 °F 50% 29.71 in 10.0 mi SSE 6.9 mph - N/A   Clear
3:55 AM 50.0 °F - 32.0 °F 50% 29.71 in 10.0 mi Calm Calm - N/A   Clear
4:15 AM 50.0 °F - 32.0 °F 50% 29.70 in 10.0 mi Variable 4.6 mph - N/A   Clear
4:35 AM 50.0 °F - 33.8 °F 54% 29.69 in 10.0 mi ENE 4.6 mph - N/A   Clear
4:55 AM 48.2 °F - 32.0 °F 54% 29.69 in 10.0 mi Variable 5.8 mph - N/A   Clear
5:15 AM 50.0 °F - 33.8 °F 54% 29.69 in 10.0 mi NNE 5.8 mph - N/A   Clear
5:35 AM 51.8 °F - 30.2 °F 44% 29.69 in 10.0 mi South 9.2 mph - N/A   Clear
5:55 AM 46.4 °F - 32.0 °F 57% 29.69 in 10.0 mi Calm Calm - N/A   Clear
6:15 AM 50.0 °F - 32.0 °F 50% 29.70 in 10.0 mi SE 6.9 mph - N/A   Clear
6:35 AM 50.0 °F - 32.0 °F 50% 29.70 in 10.0 mi SSE 9.2 mph - N/A   Clear
6:55 AM 50.0 °F - 32.0 °F 50% 29.70 in 10.0 mi ESE 6.9 mph - N/A   Clear
7:15 AM 51.8 °F - 32.0 °F 47% 29.70 in 10.0 mi SSE 9.2 mph - N/A   Clear
7:35 AM 51.8 °F - 32.0 °F 47% 29.70 in 10.0 mi Variable 3.5 mph - N/A   Clear
7:55 AM 51.8 °F - 32.0 °F 47% 29.69 in 10.0 mi Calm Calm - N/A   Clear
8:15 AM 55.4 °F - 32.0 °F 41% 29.70 in 10.0 mi South 10.4 mph - N/A   Clear
8:35 AM 57.2 °F - 32.0 °F 38% 29.70 in 10.0 mi South 10.4 mph - N/A   Clear
8:55 AM 57.2 °F - 32.0 °F 38% 29.69 in 10.0 mi South 6.9 mph - N/A   Clear
9:15 AM 57.2 °F - 32.0 °F 38% 29.68 in 10.0 mi ESE 6.9 mph - N/A   Clear
9:35 AM 59.0 °F - 32.0 °F 36% 29.67 in 10.0 mi SSE 9.2 mph - N/A   Clear
9:55 AM 60.8 °F - 32.0 °F 34% 29.65 in 10.0 mi SSE 16.1 mph - N/A   Clear
10:15 AM 62.6 °F - 33.8 °F 34% 29.64 in 10.0 mi South 13.8 mph 19.6 mph N/A   Clear
10:35 AM 62.6 °F - 30.2 °F 30% 29.62 in 10.0 mi South 9.2 mph 21.9 mph N/A   Clear
10:55 AM 64.4 °F - 28.4 °F 26% 29.60 in 10.0 mi Calm Calm - N/A   Clear
11:15 AM 64.4 °F - 32.0 °F 30% 29.58 in 10.0 mi SE 15.0 mph 24.2 mph N/A   Clear
11:35 AM 66.2 °F - 32.0 °F 28% 29.56 in 10.0 mi South 21.9 mph 29.9 mph N/A   Clear
11:55 AM 64.4 °F - 32.0 °F 30% 29.55 in 10.0 mi South 26.5 mph - N/A   Clear
12:15 PM 64.4 °F - 32.0 °F 30% 29.54 in 10.0 mi SE 23.0 mph 32.2 mph N/A   Clear
12:35 PM 68.0 °F - 32.0 °F 26% 29.52 in 10.0 mi South 21.9 mph 29.9 mph N/A   Clear
12:55 PM 68.0 °F - 32.0 °F 26% 29.51 in 10.0 mi SSW 16.1 mph 28.8 mph N/A   Clear
1:15 PM 71.6 °F - 33.8 °F 25% 29.50 in 9.0 mi SW 21.9 mph 29.9 mph N/A   Clear
1:35 PM 71.6 °F - 35.6 °F 27% 29.50 in 10.0 mi WSW 25.3 mph 34.5 mph N/A   Clear
1:55 PM 71.6 °F - 35.6 °F 27% 29.50 in 10.0 mi SW 20.7 mph 28.8 mph N/A   Partly Cloudy
2:15 PM 68.0 °F - 33.8 °F 28% 29.49 in 10.0 mi SSW 15.0 mph 28.8 mph N/A   Clear
2:35 PM 69.8 °F - 37.4 °F 31% 29.49 in 10.0 mi SW 21.9 mph 34.5 mph N/A   Clear
2:55 PM 69.8 °F - 37.4 °F 31% 29.49 in 10.0 mi SSW 23.0 mph 34.5 mph N/A   Clear
3:15 PM 68.0 °F - 37.4 °F 33% 29.48 in 10.0 mi SSW 20.7 mph 29.9 mph N/A   Clear
3:35 PM 69.8 °F - 35.6 °F 28% 29.48 in 10.0 mi SSW 18.4 mph - N/A   Clear
3:55 PM 68.0 °F - 35.6 °F 30% 29.48 in 10.0 mi SW 16.1 mph - N/A   Clear
4:15 PM 68.0 °F - 35.6 °F 30% 29.47 in 10.0 mi SW 13.8 mph 20.7 mph N/A   Clear
4:35 PM 66.2 °F - 35.6 °F 32% 29.46 in 10.0 mi WSW 17.3 mph - N/A   Clear
4:55 PM 66.2 °F - 33.8 °F 30% 29.46 in 10.0 mi SSW 10.4 mph - N/A   Partly Cloudy
5:15 PM 66.2 °F - 33.8 °F 30% 29.46 in 10.0 mi SW 8.1 mph 13.8 mph N/A   Scattered Clouds
5:35 PM 66.2 °F - 35.6 °F 32% 29.47 in 10.0 mi South 9.2 mph 16.1 mph N/A   Mostly Cloudy
5:55 PM 66.2 °F - 35.6 °F 32% 29.47 in 10.0 mi SW 11.5 mph 24.2 mph N/A   Overcast
6:15 PM 66.2 °F - 35.6 °F 32% 29.47 in 10.0 mi SSW 16.1 mph 21.9 mph N/A   Mostly Cloudy
6:35 PM 64.4 °F - 35.6 °F 34% 29.48 in 10.0 mi SW 19.6 mph 29.9 mph N/A   Partly Cloudy
6:55 PM 64.4 °F - 35.6 °F 34% 29.48 in 10.0 mi SW 9.2 mph 18.4 mph N/A   Partly Cloudy
7:15 PM 64.4 °F - 35.6 °F 34% 29.49 in 10.0 mi WSW 8.1 mph 19.6 mph N/A   Scattered Clouds
7:35 PM 64.4 °F - 35.6 °F 34% 29.50 in 10.0 mi WSW 17.3 mph - N/A   Mostly Cloudy
7:55 PM 62.6 °F - 35.6 °F 37% 29.52 in 10.0 mi WSW 25.3 mph 35.7 mph N/A   Mostly Cloudy
8:15 PM 62.6 °F - 35.6 °F 37% 29.53 in 10.0 mi West 20.7 mph 27.6 mph N/A   Overcast
8:35 PM 62.6 °F - 35.6 °F 37% 29.53 in 10.0 mi SW 20.7 mph 26.5 mph N/A   Overcast
8:55 PM 60.8 °F - 37.4 °F 42% 29.54 in 10.0 mi SW 17.3 mph 27.6 mph N/A   Overcast
9:15 PM 60.8 °F - 37.4 °F 42% 29.54 in 10.0 mi WSW 27.6 mph 33.4 mph N/A   Overcast
9:35 PM 60.8 °F - 37.4 °F 42% 29.55 in 10.0 mi WSW 20.7 mph 28.8 mph N/A   Mostly Cloudy
9:55 PM 60.8 °F - 37.4 °F 42% 29.56 in 10.0 mi SW 23.0 mph 33.4 mph N/A   Overcast
10:15 PM 53.6 °F - 32.0 °F 44% 29.58 in 10.0 mi NW 25.3 mph - N/A   Overcast
10:35 PM 50.0 °F - 30.2 °F 47% 29.60 in 10.0 mi NNW 21.9 mph - N/A   Overcast
10:55 PM 46.4 °F 38.1 °F 32.0 °F 57% 29.60 in 10.0 mi NNW 24.2 mph 31.1 mph N/A   Overcast
11:15 PM 42.8 °F 33.1 °F 33.8 °F 70% 29.62 in 3.0 mi NNW 25.3 mph 35.7 mph N/A   Haze
11:35 PM 41.0 °F 32.2 °F 35.6 °F 81% 29.65 in 6.0 mi NNE 18.4 mph 27.6 mph N/A   Haze
11:55 PM 39.2 °F 30.5 °F 35.6 °F 87% 29.68 in 5.0 mi NNE 16.1 mph - N/A   Haze